[[{"header":{"parameterUnit":"m.s-1","parameterCategory":1,"la1":30.2992,"la2":30.254,"lo1":-89.0895,"lo2":-89.0443,"dy":0.0025,"dx":0.0025,"nx":19,"ny":19,"refTime":"2026-03-26T03:00:00:Z","depth":0,"parameterNumber":2,"parameterNumberName":"U-component_of_WINDS"},"data":[0,0,0,-1.4198,-1.4199,-1.4236,-1.4236,-1.4286,-1.4286,0,0,0,0,0,0,0,0,0,0,0,-1.4188,-1.4189,-1.4198,-1.4199,-1.4236,-1.4236,-1.4286,-1.4286,0,0,0,0,0,0,0,0,0,0,0,-1.4188,-1.4188,-1.4189,-1.4199,-1.4236,-1.4237,-1.4286,-1.4257,0,0,0,0,0,0,0,0,0,0,-1.422,-1.4212,-1.4188,-1.4189,-1.42,-1.4236,-1.4237,-1.4255,-1.4259,-1.427,0,-1.428,0,-1.4284,-1.429,-1.429,0,0,0,-1.4198,-1.4209,-1.4219,-1.4189,-1.42,-1.4236,-1.4219,-1.4257,-1.4261,-1.4274,-1.428,-1.4282,-1.4285,-1.429,-1.429,-1.4357,-1.4357,0,0,-1.4196,-1.4195,-1.4216,-1.4221,-1.4215,-1.4218,-1.4221,-1.4259,-1.4266,-1.428,-1.4283,-1.4285,-1.429,-1.4291,-1.4357,-1.4357,0,0,0,-1.4191,-1.4194,-1.4202,-1.4219,-1.4226,-1.4219,-1.4222,-1.4264,-1.4267,-1.4284,-1.4286,-1.4291,-1.4291,-1.4356,-1.4357,-1.4373,0,0,0,-1.419,-1.4191,-1.4201,-1.4201,-1.4225,-1.4245,-1.4226,-1.4265,-1.4269,-1.4286,-1.4291,-1.4292,-1.4356,-1.4357,-1.4371,-1.438,0,0,0,-1.4185,-1.419,-1.4196,-1.4201,-1.4217,-1.4245,-1.425,-1.4266,-1.4271,-1.429,-1.4292,-1.4356,-1.4356,-1.437,-1.4378,-1.4397,0,0,0,-1.418,-1.4209,-1.4196,-1.4229,-1.4217,-1.4255,-1.425,-1.4278,-1.4297,-1.4291,-1.4356,-1.4357,-1.437,-1.4377,-1.4396,-1.4412,-1.4419,0,0,-1.4216,-1.4213,-1.4233,-1.4223,-1.4263,-1.4249,-1.4292,-1.431,-1.4313,-1.4342,-1.4344,-1.4372,-1.4378,-1.4397,-1.446,-1.4466,0,0,0,-1.4244,-1.4258,-1.4269,-1.4287,-1.4302,-1.4315,-1.4327,-1.4334,-1.4359,-1.4328,-1.4384,-1.4388,-1.4399,-1.4407,-1.4412,-1.4421,-1.4361,-1.436,-1.436,-1.4291,-1.4294,-1.4327,-1.4335,-1.4353,-1.4365,-1.438,-1.4391,-1.4388,-1.4402,-1.441,-1.4448,-1.4458,-1.4461,-1.4471,-1.442,-1.442,-1.442,-1.442,-1.4343,-1.4363,-1.4361,-1.4391,-1.4395,-1.442,-1.4434,-1.4432,-1.4457,-1.4442,-1.4452,-1.4435,-1.4467,-1.4476,-1.4421,-1.4421,-1.4421,-1.4421,-1.4421,-1.4373,-1.4384,-1.4393,-1.442,-1.4441,-1.4448,-1.4473,-1.4475,-1.4477,-1.4487,-1.4496,-1.4496,-1.4495,-1.4491,-1.4491,-1.4492,-1.4492,-1.4492,-1.4492,-1.4401,-1.4411,-1.4431,-1.4451,-1.4463,-1.448,-1.4495,-1.4507,-1.4521,-1.4521,-1.4521,-1.4517,-1.447,-1.4458,-1.4494,-1.4493,-1.4493,-1.4493,-1.4493,-1.4451,-1.444,-1.4471,-1.4484,-1.4508,-1.4529,-1.4533,-1.4558,-1.4569,-1.4581,-1.4576,-1.4541,-1.4538,-1.4534,-1.4524,-1.4575,-1.4575,-1.4575,-1.4575,-1.4476,-1.4475,-1.4508,-1.4529,-1.4549,-1.4556,-1.4592,-1.4604,-1.4615,-1.4622,-1.4615,-1.4602,-1.4598,-1.4598,-1.4593,-1.4583,-1.4648,-1.4648,-1.4648,-1.4506,-1.4508,-1.4538,-1.4549,-1.4569,-1.4585,-1.4619,-1.4643,-1.4653,-1.4651,-1.4627,-1.4624,-1.4603,-1.4596,-1.4592,-1.4584,-1.4566,0,0]},{"header":{"parameterUnit":"m.s-1","parameterCategory":1,"la1":30.2992,"la2":30.254,"lo1":-89.0895,"lo2":-89.0443,"dy":0.0025,"dx":0.0025,"nx":19,"ny":19,"refTime":"2026-03-26T03:00:00:Z","depth":0,"parameterNumber":3,"parameterNumberName":"V-component_of_WINDS"},"data":[0,0,0,3.7052,3.7052,3.7061,3.7061,3.7084,3.7084,0,0,0,0,0,0,0,0,0,0,0,3.7056,3.7057,3.7052,3.7052,3.7061,3.7061,3.7084,3.7084,0,0,0,0,0,0,0,0,0,0,0,3.7056,3.7057,3.7057,3.7053,3.7061,3.7061,3.7084,3.7073,0,0,0,0,0,0,0,0,0,0,3.7063,3.7073,3.7057,3.7057,3.7053,3.7061,3.7061,3.7072,3.7074,3.7085,0,3.7096,0,3.7091,3.7086,3.7087,0,0,0,3.7047,3.7072,3.7068,3.7057,3.7053,3.7061,3.7056,3.7073,3.7075,3.7087,3.7097,3.7097,3.7091,3.7087,3.7087,3.7168,3.7169,0,0,3.7047,3.7061,3.7067,3.707,3.7069,3.7056,3.7056,3.7074,3.7085,3.7097,3.7098,3.7092,3.7087,3.7087,3.7168,3.7169,0,0,0,3.7049,3.7061,3.7057,3.7069,3.707,3.7056,3.7057,3.7085,3.7082,3.7098,3.7092,3.7087,3.7088,3.7167,3.7168,3.7213,0,0,0,3.7048,3.7063,3.7057,3.7066,3.707,3.7077,3.7067,3.7081,3.7082,3.7092,3.7087,3.7088,3.7166,3.7168,3.721,3.7232,0,0,0,3.7053,3.7063,3.7067,3.7067,3.7071,3.7077,3.7075,3.7081,3.7079,3.7087,3.7088,3.7166,3.7167,3.7208,3.7228,3.7258,0,0,0,3.7063,3.7106,3.7068,3.7114,3.7071,3.7105,3.7074,3.7099,3.711,3.7087,3.7166,3.7168,3.7207,3.7225,3.7255,3.7285,3.7299,0,0,3.7125,3.7114,3.714,3.7106,3.715,3.7102,3.7153,3.7149,3.7137,3.7159,3.716,3.7211,3.7227,3.7257,3.7373,3.7384,0,0,0,3.7165,3.7184,3.7192,3.7204,3.7204,3.7205,3.7192,3.7191,3.7209,3.7151,3.723,3.7239,3.7256,3.7269,3.7279,3.7293,3.7175,3.7175,3.7175,3.7274,3.7256,3.7298,3.7281,3.7294,3.7281,3.729,3.7286,3.7264,3.7283,3.7289,3.7362,3.7378,3.7386,3.74,3.7304,3.7304,3.7304,3.7304,3.7364,3.7388,3.7358,3.7388,3.7369,3.7394,3.7385,3.7368,3.7389,3.7355,3.7369,3.7334,3.7398,3.741,3.7307,3.7307,3.7307,3.7306,3.7306,3.7433,3.7441,3.744,3.7456,3.7471,3.7453,3.7475,3.7457,3.744,3.7453,3.7458,3.7457,3.7454,3.7457,3.7457,3.7458,3.7458,3.7458,3.7458,3.7505,3.7502,3.7522,3.7526,3.7532,3.7538,3.7527,3.7532,3.7533,3.7518,3.7518,3.7495,3.7408,3.7387,3.7462,3.7461,3.7461,3.7461,3.746,3.7602,3.7577,3.7609,3.7615,3.7619,3.7635,3.7612,3.7625,3.7627,3.7638,3.7612,3.7551,3.7538,3.753,3.7513,3.7616,3.7616,3.7616,3.7616,3.766,3.7652,3.7681,3.7692,3.7701,3.7684,3.7721,3.7713,3.7701,3.7702,3.7684,3.7659,3.7652,3.7643,3.7633,3.7616,3.7743,3.7743,3.7744,3.7719,3.7711,3.7746,3.7734,3.7736,3.7738,3.7772,3.7787,3.7768,3.7748,3.7702,3.7696,3.7655,3.7643,3.7621,3.7606,3.7574,0,0]}]]